Regional Weather Roundup
Issued by NWS Sterling, VA

Home | Current Version | Previous Version | Text Only | Print | Product List | Glossary On
Versions: 1 2 3 4 5 6 7 8 9 10 11 12 13 14 15 16 17 18 19 20 21 22 23 24 25 26 27 28 29 30 31 32 33 34 35 36 37 38 39 40 41 42 43 44 45 46 47 48 49 50
000
ASUS41 KLWX 070910
RWRLWX

REGIONAL WEATHER ROUNDUP
NATIONAL WEATHER SERVICE BALTIMORE MD/WASHINGTON DC
500 AM EDT TUE JUL 07 2015

Note: "FAIR" indicates few or no clouds below 12,000 feet
with no significant weather and/or obstructions to visibility.
 TC=TEMPERATURE CELSIUS

 * =Non NWS site. Station does not report precipitation (e.g. rain,
    snow, etc.), thunder, or fog.

DCZ001-MDZ009-015-VAZ040>042-051-053>054-071000-
WASHINGTON METRO

CITY           SKY/WX    TMP DP  RH WIND       PRES   REMARKS
WASHINGTON NAT PTCLDY    75  71  87 S6        30.03S
DULLES         FOG       71  71 100 S6        30.03S VSB<1/4
ANDREWS AFB    CLOUDY    72  72 100 SW8       30.02S FOG
FT BELVOIR     CLEAR     70  68  94 CALM      30.02S FOG
COLLEGE PARK*  MOCLDY    72  72 100 CALM      30.02S
LEESBURG*      FOG       72  72 100 S6        30.04S VSB 1
MANASSAS*      CLOUDY    72  72 100 S5          N/A  VSB 1/2
GAITHERSBURG*  CLOUDY    72  70  94 S3        30.07S

$$

MDZ006>007-011-014-071000-
BALTIMORE METRO

CITY           SKY/WX    TMP DP  RH WIND       PRES   REMARKS
BWI AIRPORT    PTCLDY    71  70  96 CALM      30.02S
MD SCIENCE CTR   N/A     73  71  93 MISG      30.02F
MARTIN STATE   CLEAR     73  72  94 CALM      30.03F
ANNAPOLIS      CLEAR     74  71  91 CALM      30.01S
FORT MEADE*    CLOUDY    68  66  94 CALM      30.05S

$$

MDZ012-015-019>023-071000-
MARYLAND EASTERN SHORE

CITY           SKY/WX    TMP DP  RH WIND       PRES   REMARKS
OCEAN CITY     CLEAR     77  74  90 S6        30.05R
SALISBURY      CLEAR     74  73  97 CALM      30.04S
BAY BRIDGE AP*   N/A     75  73  94 CALM      30.02S
CAMBRIDGE*     CLEAR     73  72  94 SE3       30.02S
EASTON*        CLEAR     73  73 100 CALM      30.06S FOG

$$

MDZ017>025-071000-
SOUTHERN MARYLAND

CITY           SKY/WX    TMP DP  RH WIND       PRES   REMARKS
PATUXENT RIVER CLEAR     74  71  91 SW10      30.02S
ST INIGOES     NOT AVBL
LEONARDTOWN*   CLEAR     72  70  94 SW6       30.05R

$$

MDZ003>005-071000-
NORTH CENTRAL MARYLAND

CITY           SKY/WX    TMP DP  RH WIND       PRES   REMARKS
FREDERICK*     NOT AVBL
HAGERSTOWN APT CLOUDY    71  69  93 S5        30.02F
WESTMINSTER*   CLOUDY    72  70  94 S5        30.04S

$$

MDZ501>502-071000-
WESTERN MARYLAND

CITY           SKY/WX    TMP DP  RH WIND       PRES   REMARKS
OAKLAND*       CLOUDY    63 N/A N/A W7        30.14R HAZE
CUMBERLAND*    CLOUDY    68  68 100 CALM      30.08R

$$

VAZ025>031-071000-
SHENANDOAH VALLEY

CITY           SKY/WX    TMP DP  RH WIND       PRES   REMARKS
WINCHESTER*    CLEAR     72  70  94 SW5       30.03S
FRONT ROYAL*   FAIR      68  68 100 S3        30.03S
LURAY*         FAIR      70  70 100 CALM      30.05S
NEW MARKET*    FAIR      69  67  94 W6        30.04S
STAUNTON*      CLEAR     68  66  94 CALM      30.10R FOG
WAYNESBORO*    FAIR      65  64  97 CALM      30.10R

$$

WVZ021-048>050-054>055-071000-
EASTERN WEST VIRGINIA PANHANDLE

CITY           SKY/WX    TMP DP  RH WIND       PRES   REMARKS
MARTINSBURG    MOCLDY    70  68  93 CALM      30.03S
PETERSBURG*    CLOUDY    68  66  94 CALM      30.07R FOG

$$

VAZ036>039-050-071000-
CENTRAL FOOTHILLS

CITY           SKY/WX    TMP DP  RH WIND       PRES   REMARKS
CHARLOTTESVILL CLEAR     69  68  96 SW6       30.04S
CULPEPER*      FOG       70  70 100 CALM      30.04S VSB 1/4
ORANGE*        FOG       72  70  94 CALM      30.05S VSB 1/2
GORDONSVILLE*  FOG       70  70 100 SW3       30.04S VSB 3/4
WARRENTON*     FOG       72  72 100 CALM      30.02F VSB 1/2

$$

VAZ055>057-071000-
NORTH AND CENTRAL PIEDMONT

CITY           SKY/WX    TMP DP  RH WIND       PRES   REMARKS
FREDERICKSBRG* CLEAR     72  72 100 CALM      30.02S
STAFFORD*      FOG       67  66  97 CALM      30.07S VSB 3/4

$$

NCZ024-NYZ072-PAZ021-071-VAZ022-071-071000-
OTHER REGIONAL OBSERVATIONS

CITY           SKY/WX    TMP DP  RH WIND       PRES   REMARKS
NEW YORK CITY  CLOUDY    76  71  85 S5        30.07S
PHILADELPHIA   CLOUDY    77  72  84 S3        30.03R
PITTSBURGH     MOCLDY    70  66  87 S5        30.01F
ROANOKE        CLEAR     66  64  93 NW3       30.12S
RICHMOND       CLEAR     72  69  90 S5        30.05S
RALEIGH        PTCLDY    71  67  87 CALM      30.09S

$$

ANZ530>537-071000-
MARINE OBSERVATIONS

STATION/POSITION TIME  TEMP    WIND        PRES
                       AIR SEA DIR/SP/G
                 (UTC) (F)     (DEG/KT/KT) (MB)
THOMAS PT LIGHT  NOT AVBL
BALT KEY BRIDGE  0800   74     210/  7/  8 1016.4R
COVE POINT       0800   76     230/ 13/ 16 1017.2F
LEWISETTA        0800   76 82  230/  8/ 10 1016.6F
SOLOMONS ISLAND  0800      80                N/A
PINEY POINT      0800          220/ 13/ 15   N/A

$$



USA.gov is the U.S. government's official web portal to all federal, state and local government web resources and services.